Miami, FL

2:06 AM EDT on September 26, 2016 (GMT -0400)
Miami International

Weather History for KMIA - January, 2014

Change the Weather History Date:

Tuesday, January 28, 2014

  Actual Average Record
Temperature  
Mean Temperature 72 °F 69 °F  
Max Temperature 81 °F 77 °F 87 °F (1991)
Min Temperature 63 °F 60 °F 28 °F (1940)
Degree Days  
Heating Degree Days 0 1  
Month to date heating degree days 55 53  
Since 1 July heating degree days 57 90  
Cooling Degree Days 7 5  
Month to date cooling degree days 134 140  
Year to date cooling degree days 134 140  
Growing Degree Days 22 (Base 50)    
Moisture  
Dew Point 66 °F    
Average Humidity 81    
Maximum Humidity 100    
Minimum Humidity 62    
Precipitation  
Precipitation 0.00 in 0.05 in 1.84 in (2016)
Month to date precipitation 1.02 1.45  
Year to date precipitation 1.02 1.45  
Snow  
Snow 0.00 in - - ()
Month to date snowfall 0.0  
Since 1 July snowfall 0.0  
Snow Depth 0.00 in    
Sea Level Pressure  
Sea Level Pressure 30.04 in    
Wind  
Wind Speed 4 mph (SSE)    
Max Wind Speed 15 mph    
Max Gust Speed 22 mph    
Visibility 10 miles    
Events      
T = Trace of Precipitation, MM = Missing Value Source: NWS Daily Summary

Daily Weather History Graph

Daily Weather History Graph

Search for Another Location

Airport or City:

Trip Planner

Search our weather history database for the weather conditions in past years. The results will help you decide how hot, cold, wet, or windy it might be!

Date:

Astronomy

Jan. 28, 2014 Rise Set
Actual Time 7:06 AM EST 6:02 PM EST
Civil Twilight 6:42 AM EST 6:26 PM EST
Nautical Twilight 6:14 AM EST 6:53 PM EST
Astronomical Twilight 5:47 AM EST 7:21 PM EST
Moon 4:43 AM EST (1/28) 3:53 PM EST (1/28)
Length of Visible Light 11h 43m
Length of Day
10h 55m
Waning Crescent, 7% of the Moon is Illuminated
Jan 28
Waning Crescent
Jan 30
New
Feb 6
First Quarter
Feb 14
Full
Feb 22
Last Quarter

Hourly Weather History & Observations

Time (EST) Temp. Heat Index Dew Point Humidity Pressure Visibility Wind Dir Wind Speed Gust Speed Precip Events Conditions
12:53 AM 64.9 °F - 63.0 °F 93% 30.05 in 10.0 mi Calm Calm - N/A   Clear
1:53 AM 64.9 °F - 63.0 °F 93% 30.05 in 7.0 mi Calm Calm - N/A   Partly Cloudy
2:53 AM 64.0 °F - 63.0 °F 96% 30.03 in 8.0 mi Calm Calm - N/A   Partly Cloudy
3:53 AM 66.0 °F - 64.0 °F 93% 30.04 in 9.0 mi Calm Calm - N/A   Mostly Cloudy
4:53 AM 64.9 °F - 64.0 °F 97% 30.03 in 9.0 mi Calm Calm - N/A   Scattered Clouds
5:53 AM 64.9 °F - 64.0 °F 97% 30.03 in 8.0 mi Calm Calm - N/A   Partly Cloudy
6:53 AM 64.9 °F - 63.0 °F 93% 30.05 in 9.0 mi Calm Calm - N/A   Partly Cloudy
7:53 AM 66.0 °F - 64.9 °F 96% 30.06 in 7.0 mi Calm Calm - N/A   Partly Cloudy
8:53 AM 72.0 °F - 66.0 °F 81% 30.09 in 10.0 mi Calm Calm - N/A   Clear
9:53 AM 75.9 °F - 66.9 °F 74% 30.10 in 10.0 mi South 4.6 mph - N/A   Clear
10:53 AM 78.1 °F - 66.0 °F 66% 30.09 in 10.0 mi South 6.9 mph - N/A   Scattered Clouds
11:53 AM 80.1 °F 82.3 °F 66.9 °F 64% 30.08 in 10.0 mi SSE 10.4 mph - N/A   Scattered Clouds
12:53 PM 81.0 °F 83.8 °F 68.0 °F 65% 30.05 in 10.0 mi SE 10.4 mph - N/A   Scattered Clouds
1:53 PM 80.1 °F 82.7 °F 68.0 °F 67% 30.02 in 10.0 mi South 9.2 mph 18.4 mph N/A   Scattered Clouds
2:53 PM 80.1 °F 82.7 °F 68.0 °F 67% 30.00 in 10.0 mi ESE 11.5 mph 18.4 mph N/A   Partly Cloudy
3:53 PM 80.1 °F 82.3 °F 66.9 °F 64% 29.99 in 10.0 mi SSE 11.5 mph 21.9 mph N/A   Partly Cloudy
4:53 PM 79.0 °F - 66.9 °F 66% 30.00 in 10.0 mi SSE 8.1 mph - N/A   Partly Cloudy
5:53 PM 77.0 °F - 66.0 °F 69% 30.01 in 10.0 mi SSE 5.8 mph - N/A   Scattered Clouds
6:53 PM 75.0 °F - 66.9 °F 76% 30.01 in 10.0 mi SSE 6.9 mph - N/A   Clear
7:53 PM 73.9 °F - 69.1 °F 85% 30.03 in 10.0 mi SSE 6.9 mph - N/A   Clear
8:53 PM 73.0 °F - 69.1 °F 87% 30.04 in 10.0 mi SSE 5.8 mph - N/A   Clear
9:53 PM 73.0 °F - 69.1 °F 87% 30.05 in 10.0 mi Calm Calm - N/A   Clear
10:53 PM 72.0 °F - 69.1 °F 91% 30.05 in 10.0 mi SSE 4.6 mph - N/A   Clear
11:53 PM 71.1 °F - 69.1 °F 93% 30.05 in 10.0 mi Calm Calm - N/A   Clear